Tracking 29892 objects as of 21-Nov-2024
HD Live streaming from Space Station
objects crossing your sky now

STARLINK 1053

Track STARLINK 1053 now!
10-day predictions
STARLINK 1053 is classified as:


NORAD ID: 44758
Int'l Code: 2019-074AX
Perigee: 535.7 km
Apogee: 537.9 km
Inclination: 53.1 °
Period: 95.2 minutes
Semi major axis: 6907 km
RCS: Unknown
Launch date: November 11, 2019
Source: United States (US)
Launch site: AIR FORCE EASTERN TEST RANGE (AFETR)
Your satellite tracking list
Your tracking list is empty




NASA's NSSDC Master Catalog

Two Line Element Set (TLE):
1 44758U 19074AX  24326.17439954  .00011531  00000-0  67748-3 0  9994
2 44758  53.0523 191.1011 0001596  91.4527 268.6647 15.12131892277010
Source of the keplerian elements: AFSPC